{"data":{"norad_id":52151,"epoch":"2026-05-25T04:55:55.187040Z","epoch_age_seconds":64020,"freshness":"FRESH","line1":"1 52151U 22031B   26145.20549985  .00001024  00000+0  10081-3 0  9991","line2":"2 52151  97.8623 330.7250 0010134 281.5585  78.4497 14.94289589226361","mean_motion":14.94289589,"eccentricity":0.0010134,"inclination_deg":97.8623,"raan_deg":330.725,"arg_perigee_deg":281.5585,"mean_anomaly_deg":78.4497,"bstar":0.00010081,"rev_number":22636,"period_min":96.366862929405,"perigee_km":577.52265770478,"apogee_km":591.63468983238,"semimajor_km":6962.7156737686,"source":"CELESTRAK","updated_at":"2026-05-25T13:37:57.647439Z"}}